Location: Izdebno
(52.6670°N, 16.2170°E)
Time: 09:48:22
(UTC+01:00)

Vanguard 2 - Pass Details

Date: 26 September 2023
Orbit: 552 x 2923 km, 32.9° (Epoch: 07 December)

Event Time Altitude Azimuth Distance (km) Brightness Sun altitude
Rises 22:37:02 0° 247° (WSW) 5,647 12.1 -32.1°
Reaches altitude 10° 22:42:30 10° 233° (SW) 4,161 11.2 -32.6°
Enters shadow 22:46:10 17° 216° (SW) 3,301 10.5 -33.0°
